• In Czech Republic
  • List of Countries
  • For 7 days
  • Water Temperature
  • Satellite Maps
  • Weather Map
  • Weather Widgets
  • user-avatar
    Login

    Hourly Weather Gjirokaster

    Today, 18 January, Thursday

    Time Temperature Precipitation Wind Pressure Humidity
    00:00 -3°C° 0.5 mm 9 mps 641 mmHg 83%
    01:00 -4°C° 0 mm 10 mps 641 mmHg 79%
    02:00 -5°C° 0.1 mm 10 mps 642 mmHg 79%
    03:00 -5°C° 0.1 mm 10 mps 642 mmHg 79%
    04:00 -7°C° 0.1 mm 10 mps 643 mmHg 79%
    05:00 -8°C° 0 mm 9 mps 644 mmHg 78%
    06:00 -8°C° 0 mm 9 mps 645 mmHg 77%
    07:00 -8°C° 0 mm 8 mps 645 mmHg 76%
    08:00 -8°C° 0 mm 9 mps 646 mmHg 68%
    09:00 -6°C° 0 mm 9 mps 647 mmHg 59%
    10:00 -5°C° 0 mm 9 mps 648 mmHg 51%
    11:00 -5°C° 0 mm 9 mps 649 mmHg 49%
    12:00 -4°C° 0 mm 8 mps 650 mmHg 47%
    13:00 -4°C° 0 mm 8 mps 650 mmHg 47%
    14:00 -3°C° 0 mm 7 mps 650 mmHg 50%
    15:00 -3°C° 0 mm 6 mps 650 mmHg 54%
    16:00 -4°C° 0 mm 5 mps 650 mmHg 57%
    17:00 -4°C° 0 mm 4 mps 650 mmHg 58%
    18:00 -5°C° 0 mm 3 mps 650 mmHg 59%
    19:00 -5°C° 0 mm 2 mps 650 mmHg 60%
    20:00 -5°C° 0 mm 2 mps 650 mmHg 58%
    21:00 -5°C° 0 mm 2 mps 650 mmHg 56%
    22:00 -3°C° 0 mm 1 mps 650 mmHg 54%
    23:00 -5°C° 0 mm 2 mps 650 mmHg 53%

    Tomorrow, 19 January, Friday

    Time Temperature Precipitation Wind Pressure Humidity
    00:00 -4°C° 0 mm 2 mps 650 mmHg 52%
    01:00 -4°C° 0 mm 2 mps 650 mmHg 51%
    02:00 -4°C° 0 mm 2 mps 650 mmHg 51%
    03:00 -5°C° 0 mm 3 mps 650 mmHg 52%
    04:00 -5°C° 0 mm 3 mps 649 mmHg 52%
    05:00 -5°C° 0 mm 3 mps 649 mmHg 54%
    06:00 -5°C° 0 mm 3 mps 649 mmHg 56%
    07:00 -5°C° 0 mm 4 mps 649 mmHg 58%
    08:00 -3°C° 0 mm 4 mps 650 mmHg 60%
    09:00 -1°C° 0 mm 4 mps 650 mmHg 62%
    10:00 0°C° 0 mm 4 mps 651 mmHg 64%
    11:00 +1°C° 0 mm 4 mps 650 mmHg 67%
    12:00 +3°C° 0 mm 4 mps 650 mmHg 69%
    13:00 +3°C° 0 mm 4 mps 650 mmHg 72%
    14:00 +1°C° 0 mm 4 mps 650 mmHg 77%
    15:00 +1°C° 0 mm 4 mps 650 mmHg 81%
    16:00 0°C° 0 mm 4 mps 649 mmHg 85%
    17:00 0°C° 0 mm 4 mps 649 mmHg 87%
    18:00 -1°C° 0 mm 4 mps 649 mmHg 89%
    19:00 -2°C° 0 mm 4 mps 649 mmHg 91%
    20:00 -2°C° 0 mm 4 mps 649 mmHg 92%
    21:00 -2°C° 0 mm 4 mps 649 mmHg 92%
    22:00 -1°C° 0 mm 4 mps 649 mmHg 92%
    23:00 -1°C° 0.1 mm 4 mps 649 mmHg 93%

    Day after tomorrow, 20 January, Saturday

    Time Temperature Precipitation Wind Pressure Humidity
    00:00 -1°C° 0.1 mm 4 mps 649 mmHg 93%
    01:00 -1°C° 0.1 mm 4 mps 649 mmHg 94%
    02:00 -1°C° 0.1 mm 4 mps 649 mmHg 94%
    03:00 -1°C° 0.1 mm 4 mps 648 mmHg 94%
    04:00 -1°C° 0.1 mm 4 mps 648 mmHg 94%
    05:00 -1°C° 0.1 mm 4 mps 648 mmHg 95%
    06:00 -1°C° 0.1 mm 4 mps 648 mmHg 95%
    07:00 0°C° 0.1 mm 4 mps 648 mmHg 95%
    08:00 0°C° 0.3 mm 4 mps 648 mmHg 94%
    09:00 +1°C° 0.3 mm 4 mps 648 mmHg 94%
    10:00 +1°C° 0.3 mm 4 mps 648 mmHg 93%
    11:00 +1°C° 0.8 mm 4 mps 648 mmHg 92%
    12:00 +3°C° 0.8 mm 4 mps 647 mmHg 92%
    13:00 +3°C° 0.8 mm 3 mps 647 mmHg 92%
    14:00 +3°C° 0.7 mm 3 mps 647 mmHg 92%
    15:00 +2°C° 0.7 mm 3 mps 647 mmHg 92%
    16:00 +3°C° 0.7 mm 2 mps 647 mmHg 93%
    17:00 +3°C° 0.3 mm 2 mps 647 mmHg 93%
    18:00 +4°C° 0.3 mm 1 mps 647 mmHg 94%
    19:00 +3°C° 0.3 mm 1 mps 647 mmHg 95%
    20:00 +3°C° 0.1 mm 1 mps 647 mmHg 95%
    21:00 +3°C° 0.1 mm 1 mps 647 mmHg 95%
    22:00 +2°C° 0.1 mm 2 mps 647 mmHg 95%
    23:00 +2°C° 0 mm 2 mps 647 mmHg 95%

    21 January, Sunday

    Time Temperature Precipitation Wind Pressure Humidity
    00:00 +1°C° 0 mm 2 mps 646 mmHg 95%
    01:00 0°C° 0 mm 3 mps 646 mmHg 95%
    02:00 0°C° 0.2 mm 3 mps 646 mmHg 95%
    03:00 0°C° 0.2 mm 3 mps 645 mmHg 95%
    04:00 +1°C° 0.2 mm 3 mps 645 mmHg 95%
    05:00 0°C° 0.9 mm 4 mps 644 mmHg 95%
    06:00 0°C° 0.9 mm 4 mps 644 mmHg 96%
    07:00 0°C° 0.9 mm 4 mps 644 mmHg 96%
    08:00 0°C° 1 mm 4 mps 643 mmHg 95%
    09:00 0°C° 1 mm 4 mps 643 mmHg 93%
    10:00 0°C° 1 mm 4 mps 643 mmHg 92%
    11:00 0°C° 2.1 mm 4 mps 642 mmHg 93%
    12:00 0°C° 2.1 mm 4 mps 641 mmHg 94%
    13:00 0°C° 2.1 mm 4 mps 640 mmHg 95%
    14:00 0°C° 1.9 mm 4 mps 640 mmHg 94%
    15:00 0°C° 1.9 mm 4 mps 640 mmHg 94%
    16:00 -1°C° 1.9 mm 5 mps 639 mmHg 94%
    17:00 -1°C° 0.7 mm 5 mps 640 mmHg 93%
    18:00 -1°C° 0.7 mm 5 mps 640 mmHg 93%
    19:00 -2°C° 0.7 mm 6 mps 640 mmHg 93%
    20:00 -2°C° 0.1 mm 6 mps 640 mmHg 93%
    21:00 -2°C° 0.1 mm 5 mps 640 mmHg 93%
    22:00 -2°C° 0.1 mm 5 mps 641 mmHg 93%
    23:00 -4°C° 0 mm 5 mps 641 mmHg 92%

    22 January, Monday

    Time Temperature Precipitation Wind Pressure Humidity
    00:00 -4°C° 0 mm 5 mps 641 mmHg 91%
    01:00 -4°C° 0 mm 5 mps 641 mmHg 90%
    02:00 -5°C° 0 mm 5 mps 642 mmHg 89%
    03:00 -5°C° 0 mm 5 mps 642 mmHg 88%
    04:00 -6°C° 0 mm 6 mps 642 mmHg 87%
    05:00 -6°C° 0 mm 5 mps 643 mmHg 85%
    06:00 -7°C° 0 mm 5 mps 643 mmHg 84%
    07:00 -7°C° 0 mm 5 mps 644 mmHg 82%
    08:00 -5°C° 0 mm 5 mps 644 mmHg 75%
    09:00 -4°C° 0 mm 5 mps 645 mmHg 68%
    10:00 -2°C° 0 mm 5 mps 646 mmHg 61%
    11:00 -1°C° 0 mm 5 mps 646 mmHg 59%
    12:00 -1°C° 0 mm 5 mps 647 mmHg 57%
    13:00 0°C° 0 mm 5 mps 647 mmHg 54%
    14:00 0°C° 0 mm 5 mps 647 mmHg 58%
    15:00 -1°C° 0 mm 5 mps 648 mmHg 61%
    16:00 -1°C° 0 mm 5 mps 648 mmHg 64%
    17:00 -2°C° 0 mm 5 mps 648 mmHg 67%
    18:00 -4°C° 0 mm 4 mps 649 mmHg 70%
    19:00 -5°C° 0 mm 4 mps 649 mmHg 72%
    20:00 -5°C° 0 mm 4 mps 649 mmHg 73%
    21:00 -5°C° 0 mm 4 mps 650 mmHg 73%
    22:00 -6°C° 0 mm 3 mps 650 mmHg 73%
    23:00 -6°C° 0 mm 3 mps 650 mmHg 72%

    23 January, Tuesday

    Time Temperature Precipitation Wind Pressure Humidity
    00:00 -6°C° 0 mm 3 mps 650 mmHg 72%
    01:00 -6°C° 0 mm 3 mps 651 mmHg 71%
    02:00 -6°C° 0 mm 3 mps 651 mmHg 70%
    03:00 -6°C° 0 mm 3 mps 651 mmHg 69%
    04:00 -5°C° 0 mm 2 mps 651 mmHg 67%
    05:00 -5°C° 0 mm 2 mps 651 mmHg 66%
    06:00 -5°C° 0 mm 2 mps 652 mmHg 64%
    07:00 -5°C° 0 mm 2 mps 652 mmHg 63%
    08:00 -4°C° 0 mm 2 mps 653 mmHg 56%
    09:00 -2°C° 0 mm 2 mps 654 mmHg 50%
    10:00 +2°C° 0 mm 1 mps 655 mmHg 43%
    11:00 +3°C° 0 mm 1 mps 655 mmHg 42%
    12:00 +4°C° 0 mm 1 mps 655 mmHg 40%
    13:00 +5°C° 0 mm 1 mps 655 mmHg 38%
    14:00 +4°C° 0 mm 1 mps 655 mmHg 44%
    15:00 +4°C° 0 mm 1 mps 655 mmHg 50%
    16:00 +2°C° 0 mm 2 mps 655 mmHg 55%
    17:00 +1°C° 0 mm 2 mps 654 mmHg 57%
    18:00 +1°C° 0 mm 1 mps 654 mmHg 59%
    19:00 0°C° 0 mm 1 mps 654 mmHg 60%
    20:00 0°C° 0 mm 1 mps 654 mmHg 60%
    21:00 0°C° 0 mm 1 mps 654 mmHg 59%
    22:00 0°C° 0 mm 1 mps 655 mmHg 58%
    23:00 0°C° 0 mm 1 mps 654 mmHg 57%
    Show more